Location: Houston
(29.7630°N, 95.3630°W)
Time: 23:54:51
(UTC-05:00)

Daily predictions for brighter satellites

Satellite Brightness Start Highest point End
(mag) Time Altitude Azimuth Time Altitude Azimuth Time Altitude Azimuth
IUS-18 SRM-1 4.1 20:09:37 10° W 20:13:38 68° S 20:33:05 10° ESE
BREEZE-M R/B 4.0 20:34:33 10° WNW 20:37:23 35° SW 20:42:14 10° SSE
CZ-2D R/B 3.9 20:37:13 10° SE 20:40:50 39° ENE 20:44:29 10° N
METEOR-M 4.5 20:47:39 10° S 20:52:58 71° WSW 20:58:19 10° NNW
Cosmos 1892 Rocket 3.7 20:48:43 10° S 20:53:09 82° W 20:57:37 10° N
Cosmos 1331 Rocket 4.0 20:48:41 10° N 20:53:50 63° ENE 20:58:55 10° SSE
Cosmos 1743 2.6 20:51:17 10° N 20:55:07 76° E 20:58:55 10° S
Meteor 2-17 Rocket 4.5 20:49:22 10° N 20:55:33 81° E 21:01:42 10° S
Atlas Centaur 2 2.8 20:49:08 10° WSW 20:55:46 84° SSE 21:03:54 10° E
Resurs 01 Rocket 3.7 20:55:52 10° SSW 20:59:42 28° W 21:03:34 10° NW
ATLAS 3B R/B 3.5 20:54:48 10° S 21:01:28 33° ESE 21:08:07 10° NE
Aureole 2 Rocket 3.5 20:57:49 10° SSW 21:01:45 54° WNW 21:05:21 10° N
Cosmos 1603 3.6 20:56:30 10° S 21:02:06 72° ESE 21:07:40 10° NNE
Cosmos 1461 4.1 20:58:39 10° N 21:02:14 27° ENE 21:05:02 13° ESE
ISS -1.4 20:59:31 10° WSW 21:02:31 34° NW 21:05:32 10° NNE
BREEZE-M DEB (TANK) 4.1 20:53:09 10° SW 21:02:33 59° NW 21:05:32 10° NE
ALOS 2.2 21:01:06 10° SSE 21:05:45 72° ENE 21:10:23 10° N
Cosmos 1302 Rocket 4.4 21:01:25 10° N 21:06:28 46° ENE 21:10:55 13° SE
Abrixas rocket 3.0 21:03:17 10° NW 21:06:34 44° NE 21:09:03 16° ESE
FENGYUN 3A 3.6 21:03:09 10° SSE 21:08:28 73° ENE 21:13:51 10° N
Meteor 1-23 Rocket 4.5 21:04:41 10° SSW 21:10:17 75° W 21:16:01 10° N
Meteor 2-9 Rocket 4.4 21:06:54 10° N 21:12:36 59° E 21:18:20 10° SSE
Cosmos 1939 Rocket 4.2 21:14:42 17° ESE 21:16:47 25° ENE 21:20:11 10° NNE
Cosmos 1726 Rocket 4.2 21:15:30 10° NNW 21:19:51 58° W 21:24:08 10° S
Milstar 3 Cent rocket 3.1 21:11:37 10° W 21:20:37 51° SSW 21:24:27 19° SE
ERS-1 Rocket 3.2 21:17:09 14° SSE 21:21:15 53° ENE 21:26:08 10° N
USA 186 2.1 21:19:39 10° S 21:22:27 52° W 21:25:06 10° NNW
Cosmos 1943 3.6 21:18:17 10° S 21:23:31 40° ESE 21:28:47 10° NE
SPOT 5 4.1 21:23:00 17° E 21:24:34 21° ENE 21:27:46 10° NNE
Cosmos 2297 4.3 21:19:37 10° NNW 21:25:13 57° WSW 21:30:48 10° S
H-2A R/B 3.4 21:25:29 10° S 21:29:21 58° W 21:33:16 10° NNW
CZ-4 DEB 3.9 21:28:51 10° S 21:31:55 42° W 21:34:59 10° NNW
Envisat 3.7 21:31:25 23° ESE 21:33:51 36° ENE 21:38:27 10° N
Delta 168 3.0 21:30:47 10° WSW 21:33:53 41° S 21:35:05 31° SE
COSMOS 2455 3.0 21:28:38 10° SSW 21:34:36 75° WNW 21:40:38 10° NNE
Cosmos 1602 Rocket 3.7 21:30:38 10° S 21:35:06 80° W 21:39:35 10° N
Cosmos 407 Rocket 4.3 21:34:31 24° SE 21:36:16 29° E 21:40:44 10° NE
Cosmos 1825 Rocket 4.4 21:38:25 28° ESE 21:39:17 30° E 21:43:09 10° NNE
Cosmos 1513 Rocket 4.4 21:33:38 10° N 21:39:53 87° E 21:45:16 14° S
Cosmos 2058 Rocket 4.2 21:37:33 10° NNW 21:41:38 41° W 21:45:43 10° SSW
APEX 4.2 21:38:44 10° NNW 21:43:25 69° WSW 21:47:50 18° S
deb Centaur AC-2 4.4 21:38:44 10° W 21:43:35 86° N 21:47:31 21° E
Tsikada Rocket 4.0 21:37:51 10° S 21:44:16 89° E 21:50:41 10° N
ATLAS 5 CENTAUR R/B 2.4 21:47:28 10° SW 21:49:43 23° S 21:49:43 23° S
Cosmos 1812 Rocket 3.6 21:47:57 10° N 21:52:19 63° E 21:53:47 39° SSE
OAO 3 Copernicus 4.2 21:48:05 10° WNW 21:53:07 75° SSW 21:55:01 38° SE
Cosmos 1900 4.3 21:53:01 10° SSW 21:58:05 64° ESE 22:03:10 10° NNE
H-2A R/B 2.3 21:56:28 28° S 21:58:35 67° WSW 22:02:54 10° NNW
CZ-2C R/B 3.2 22:04:32 15° WSW 22:04:41 16° W 22:06:12 10° NW
MetOp-B 4.4 22:06:19 41° ESE 22:07:42 52° ENE 22:12:53 10° N
CZ-3C R/B 3.3 22:05:26 10° WSW 22:10:49 21° SSW 22:10:49 21° SSW
Lacrosse 4 Rocket 1.4 22:08:46 22° SSW 22:11:18 75° WNW 22:15:22 10° NNE
Cosmos 2369 Rocket 2.8 22:07:41 10° N 22:12:58 39° ENE 22:13:56 36° E
Mugunghwa Rocket 4.1 22:08:08 10° WSW 22:14:11 50° SSE 22:15:29 43° SE
Cosmos 1992 Rocket 4.1 22:09:22 10° N 22:14:30 59° ENE 22:15:24 51° ESE
USA 81 4.1 22:11:47 10° N 22:17:00 59° E 22:17:46 53° ESE
UNK 4.4 22:12:22 10° N 22:17:56 79° WNW 22:22:30 17° SSW
SeaSat 1 2.7 22:18:29 47° E 22:19:08 50° ENE 22:23:54 10° NNW
Meteor 2-12 Rocket 4.4 22:15:07 10° N 22:21:13 86° W 22:23:37 39° S
Cosmos 1634 Rocket 3.9 22:18:39 10° N 22:24:47 66° E 22:26:12 51° SE
Cosmos 1953 Rocket 3.4 22:26:35 85° E 22:26:35 85° E 22:31:00 10° N
YAOGAN 6 3.5 22:29:04 42° NNE 22:29:04 42° NNE 22:31:46 10° N
Cosmos 489 Rocket 4.4 22:24:51 23° SSW 22:29:03 87° WNW 22:35:27 10° NNE
H-2A R/B 3.5 22:36:00 22° ENE 22:36:00 22° ENE 22:39:07 10° NNE
CZ-4B R/B 4.0 22:33:12 10° N 22:38:16 59° WNW 22:40:38 31° SW
Cosmos 2263 4.4 22:38:26 10° N 22:43:55 53° ENE 22:43:55 53° ENE
SPOT 1/Viking Rocket 3.4 22:43:57 84° ESE 22:44:02 85° E 22:49:12 10° NNW
COSMOS 2406 3.9 22:45:47 39° ENE 22:45:47 39° ENE 22:49:45 10° NNE
Cosmos 1932 4.3 22:42:29 37° SSW 22:45:09 88° WNW 22:51:24 10° NNE
Cosmos 2279 Rocket 4.1 22:39:36 10° N 22:45:43 54° E 22:45:51 54° E
Atlas Centaur 2 2.9 22:38:12 10° W 22:45:46 87° N 22:49:13 41° E
Cosmos 1140 Rocket 4.5 22:47:56 35° NE 22:47:56 35° NE 22:51:11 10° NNE
Cosmos 676 Rocket 4.3 22:48:02 50° SW 22:49:15 67° WNW 22:54:34 10° N
ATLAS 3B R/B 4.0 22:44:45 10° SW 22:52:01 44° NW 22:59:13 10° NNE
Meteor 1-22 Rocket 4.2 22:53:38 10° N 22:59:19 78° W 22:59:36 75° SW
SPOT 5 4.4 23:02:15 24° WSW 23:02:28 24° W 23:06:01 10° NW
USA 234 3.7 23:06:31 46° ENE 23:07:34 50° NE 23:13:51 10° NNW
Terra 3.1 23:10:21 33° NNE 23:10:21 33° NNE 23:13:15 10° N
Cosmos 1943 Rocket 2.9 23:04:38 10° N 23:09:02 42° NE 23:09:02 42° NE
Cosmos 2180 Rocket 4.5 23:04:02 10° N 23:10:03 73° ENE 23:10:03 73° ENE
USA 238 DEB 4.4 23:30:15 23° WSW 23:34:35 50° WNW 23:41:26 10° NNE
USA 238 4.4 23:30:31 24° WSW 23:34:41 51° WNW 23:41:33 10° NNE
ARGOS 4.4 23:37:09 35° W 23:37:09 35° W 23:41:29 10° NNW
Cosmos 1092 Rocket 4.4 23:47:06 59° N 23:47:06 59° N 23:52:04 10° N
